Year,Month,Day,Hour,Minute,Value (Times are PST for temperature in C)
2018,07,03,00,00,12.70
2018,07,03,00,01,12.70
2018,07,03,00,02,12.60
2018,07,03,00,03,12.60
2018,07,03,00,04,12.60
2018,07,03,00,05,12.60
2018,07,03,00,06,12.50
2018,07,03,00,07,12.50
2018,07,03,00,08,12.50
2018,07,03,00,09,12.40
2018,07,03,00,10,12.40
2018,07,03,00,11,12.40
2018,07,03,00,12,12.30
2018,07,03,00,13,12.30
2018,07,03,00,14,12.30
2018,07,03,00,15,12.30
2018,07,03,00,16,12.30
2018,07,03,00,17,12.20
2018,07,03,00,18,12.20
2018,07,03,00,19,12.20
2018,07,03,00,20,12.20
2018,07,03,00,21,12.20
2018,07,03,00,22,12.20
2018,07,03,00,23,12.10
2018,07,03,00,24,12.10
2018,07,03,00,25,12.10
2018,07,03,00,26,12.10
2018,07,03,00,27,12.10
2018,07,03,00,28,12.10
2018,07,03,00,29,12.00
2018,07,03,00,30,12.00
2018,07,03,00,31,12.00
2018,07,03,00,32,11.90
2018,07,03,00,33,11.90
2018,07,03,00,34,11.90
2018,07,03,00,35,11.90
2018,07,03,00,36,11.80
2018,07,03,00,37,11.80
2018,07,03,00,38,11.80
2018,07,03,00,39,11.80
2018,07,03,00,40,11.80
2018,07,03,00,41,11.80
2018,07,03,00,42,11.70
2018,07,03,00,43,11.70
2018,07,03,00,44,11.70
2018,07,03,00,45,11.70
2018,07,03,00,46,11.70
2018,07,03,00,47,11.70
2018,07,03,00,48,11.70
2018,07,03,00,49,11.60
2018,07,03,00,50,11.60
2018,07,03,00,51,11.60
2018,07,03,00,52,11.60
2018,07,03,00,53,11.60
2018,07,03,00,54,11.60
2018,07,03,00,55,11.50
2018,07,03,00,56,11.50
2018,07,03,00,57,11.50
2018,07,03,00,58,11.50
2018,07,03,00,59,11.40
2018,07,03,01,00,11.40
2018,07,03,01,01,11.40
2018,07,03,01,02,11.40
2018,07,03,01,03,11.40
2018,07,03,01,04,11.40
2018,07,03,01,05,11.40
2018,07,03,01,06,11.30
2018,07,03,01,07,11.30
2018,07,03,01,08,11.30
2018,07,03,01,09,11.30
2018,07,03,01,10,11.30
2018,07,03,01,11,11.30
2018,07,03,01,12,11.30
2018,07,03,01,13,11.20
2018,07,03,01,14,11.20
2018,07,03,01,15,11.20
2018,07,03,01,16,11.20
2018,07,03,01,17,11.20
2018,07,03,01,18,11.20
2018,07,03,01,19,11.10
2018,07,03,01,20,11.10
2018,07,03,01,21,11.10
2018,07,03,01,22,11.10
2018,07,03,01,23,11.10
2018,07,03,01,24,11.10
2018,07,03,01,25,11.00
2018,07,03,01,26,11.00
2018,07,03,01,27,11.00
2018,07,03,01,28,11.00
2018,07,03,01,29,11.00
2018,07,03,01,30,11.00
2018,07,03,01,31,11.00
2018,07,03,01,32,11.00
2018,07,03,01,33,11.00
2018,07,03,01,34,11.00
2018,07,03,01,35,10.90
2018,07,03,01,36,10.90
2018,07,03,01,37,10.90
2018,07,03,01,38,10.90
2018,07,03,01,39,10.90
2018,07,03,01,40,10.80
2018,07,03,01,41,10.80
2018,07,03,01,42,10.80
2018,07,03,01,43,10.80
2018,07,03,01,44,10.80
2018,07,03,01,45,10.80
2018,07,03,01,46,10.80
2018,07,03,01,47,10.70
2018,07,03,01,48,10.70
2018,07,03,01,49,10.70
2018,07,03,01,50,10.70
2018,07,03,01,51,10.70
2018,07,03,01,52,10.60
2018,07,03,01,53,10.60
2018,07,03,01,54,10.60
2018,07,03,01,55,10.60
2018,07,03,01,56,10.60
2018,07,03,01,57,10.60
2018,07,03,01,58,10.60
2018,07,03,01,59,10.60
2018,07,03,02,00,10.60
2018,07,03,02,01,10.60
2018,07,03,02,02,10.60
2018,07,03,02,03,10.60
2018,07,03,02,04,10.60
2018,07,03,02,05,10.60
2018,07,03,02,06,10.60
2018,07,03,02,07,10.60
2018,07,03,02,08,10.60
2018,07,03,02,09,10.60
2018,07,03,02,10,10.60
2018,07,03,02,11,10.60
2018,07,03,02,12,10.60
2018,07,03,02,13,10.60
2018,07,03,02,14,10.60
2018,07,03,02,15,10.50
2018,07,03,02,16,10.50
2018,07,03,02,17,10.50
2018,07,03,02,18,10.50
2018,07,03,02,19,10.40
2018,07,03,02,20,10.40
2018,07,03,02,21,10.40
2018,07,03,02,22,10.40
2018,07,03,02,23,10.40
2018,07,03,02,24,10.40
2018,07,03,02,25,10.30
2018,07,03,02,26,10.30
2018,07,03,02,27,10.30
2018,07,03,02,28,10.30
2018,07,03,02,29,10.20
2018,07,03,02,30,10.20
2018,07,03,02,31,10.20
2018,07,03,02,32,10.20
2018,07,03,02,33,10.20
2018,07,03,02,34,10.10
2018,07,03,02,35,10.10
2018,07,03,02,36,10.10
2018,07,03,02,37,10.10
2018,07,03,02,38,10.10
2018,07,03,02,39,10.00
2018,07,03,02,40,10.00
2018,07,03,02,41,10.00
2018,07,03,02,42,10.00
2018,07,03,02,43,10.00
2018,07,03,02,44,9.90
2018,07,03,02,45,9.90
2018,07,03,02,46,9.90
2018,07,03,02,47,9.90
2018,07,03,02,48,9.90
2018,07,03,02,49,9.90
2018,07,03,02,50,9.90
2018,07,03,02,51,9.90
2018,07,03,02,52,9.90
2018,07,03,02,53,9.90
2018,07,03,02,54,9.90
2018,07,03,02,55,9.90
2018,07,03,02,56,9.90
2018,07,03,02,57,9.90
2018,07,03,02,58,9.90
2018,07,03,02,59,9.90
2018,07,03,03,00,9.90
2018,07,03,03,01,9.90
2018,07,03,03,02,9.90
2018,07,03,03,03,9.90
2018,07,03,03,04,9.90
2018,07,03,03,05,9.90
2018,07,03,03,06,9.90
2018,07,03,03,07,9.90
2018,07,03,03,08,9.80
2018,07,03,03,09,9.80
2018,07,03,03,10,9.80
2018,07,03,03,11,9.80
2018,07,03,03,12,9.80
2018,07,03,03,13,9.80
2018,07,03,03,14,9.80
2018,07,03,03,15,9.70
2018,07,03,03,16,9.70
2018,07,03,03,17,9.70
2018,07,03,03,18,9.70
2018,07,03,03,19,9.70
2018,07,03,03,20,9.70
2018,07,03,03,21,9.70
2018,07,03,03,22,9.70
2018,07,03,03,23,9.60
2018,07,03,03,24,9.60
2018,07,03,03,25,9.60
2018,07,03,03,26,9.60
2018,07,03,03,27,9.60
2018,07,03,03,28,9.60
2018,07,03,03,29,9.60
2018,07,03,03,30,9.60
2018,07,03,03,31,9.60
2018,07,03,03,32,9.60
2018,07,03,03,33,9.50
2018,07,03,03,34,9.50
2018,07,03,03,35,9.50
2018,07,03,03,36,9.50
2018,07,03,03,37,9.50
2018,07,03,03,38,9.50
2018,07,03,03,39,9.50
2018,07,03,03,40,9.50
2018,07,03,03,41,9.50
2018,07,03,03,42,9.50
2018,07,03,03,43,9.50
2018,07,03,03,44,9.50
2018,07,03,03,45,9.50
2018,07,03,03,46,9.50
2018,07,03,03,47,9.50
2018,07,03,03,48,9.40
2018,07,03,03,49,9.40
2018,07,03,03,50,9.40
2018,07,03,03,51,9.40
2018,07,03,03,52,9.40
2018,07,03,03,53,9.40
2018,07,03,03,54,9.40
2018,07,03,03,55,9.30
2018,07,03,03,56,9.30
2018,07,03,03,57,9.30
2018,07,03,03,58,9.30
2018,07,03,03,59,9.20
2018,07,03,04,00,9.20
2018,07,03,04,01,9.20
2018,07,03,04,02,9.10
2018,07,03,04,03,9.10
2018,07,03,04,04,9.10
2018,07,03,04,05,9.10
2018,07,03,04,06,9.00
2018,07,03,04,07,9.00
2018,07,03,04,08,9.00
2018,07,03,04,09,8.90
2018,07,03,04,10,8.90
2018,07,03,04,11,8.90
2018,07,03,04,12,8.90
2018,07,03,04,13,8.90
2018,07,03,04,14,8.90
2018,07,03,04,15,8.90
2018,07,03,04,16,8.90
2018,07,03,04,17,8.90
2018,07,03,04,18,8.90
2018,07,03,04,19,8.90
2018,07,03,04,20,8.90
2018,07,03,04,21,8.90
2018,07,03,04,22,8.90
2018,07,03,04,23,8.90
2018,07,03,04,24,8.90
2018,07,03,04,25,8.90
2018,07,03,04,26,8.90
2018,07,03,04,27,8.90
2018,07,03,04,28,8.90
2018,07,03,04,29,8.90
2018,07,03,04,30,8.90
2018,07,03,04,31,8.90
2018,07,03,04,32,8.90
2018,07,03,04,33,8.90
2018,07,03,04,34,8.90
2018,07,03,04,35,8.90
2018,07,03,04,36,8.90
2018,07,03,04,37,8.90
2018,07,03,04,38,8.90
2018,07,03,04,39,8.90
2018,07,03,04,40,8.90
2018,07,03,04,41,8.80
2018,07,03,04,42,8.80
2018,07,03,04,43,8.80
2018,07,03,04,44,8.80
2018,07,03,04,45,8.80
2018,07,03,04,46,8.70
2018,07,03,04,47,8.70
2018,07,03,04,48,8.70
2018,07,03,04,49,8.70
2018,07,03,04,50,8.70
2018,07,03,04,51,8.70
2018,07,03,04,52,8.70
2018,07,03,04,53,8.70
2018,07,03,04,54,8.70
2018,07,03,04,55,8.70
2018,07,03,04,56,8.60
2018,07,03,04,57,8.60
2018,07,03,04,58,8.60
2018,07,03,04,59,8.60
2018,07,03,05,00,8.60
2018,07,03,05,01,8.60
2018,07,03,05,02,8.60
2018,07,03,05,03,8.60
2018,07,03,05,04,8.60
2018,07,03,05,05,8.60
2018,07,03,05,06,8.60
2018,07,03,05,07,8.60
2018,07,03,05,08,8.60
2018,07,03,05,09,8.60
2018,07,03,05,10,8.60
2018,07,03,05,11,8.60
2018,07,03,05,12,8.60
2018,07,03,05,13,8.60
2018,07,03,05,14,8.60
2018,07,03,05,15,8.60
2018,07,03,05,16,8.60
2018,07,03,05,17,8.50
2018,07,03,05,18,8.50
2018,07,03,05,19,8.50
2018,07,03,05,20,8.50
2018,07,03,05,21,8.50
2018,07,03,05,22,8.50
2018,07,03,05,23,8.40
2018,07,03,05,24,8.40
2018,07,03,05,25,8.40
2018,07,03,05,26,8.40
2018,07,03,05,27,8.40
2018,07,03,05,28,8.40
2018,07,03,05,29,8.40
2018,07,03,05,30,8.40
2018,07,03,05,31,8.40
2018,07,03,05,32,8.40
2018,07,03,05,33,8.40
2018,07,03,05,34,8.40
2018,07,03,05,35,8.40
2018,07,03,05,36,8.40
2018,07,03,05,37,8.40
2018,07,03,05,38,8.40
2018,07,03,05,39,8.40
2018,07,03,05,40,8.40
2018,07,03,05,41,8.30
2018,07,03,05,42,8.30
2018,07,03,05,43,8.30
2018,07,03,05,44,8.30
2018,07,03,05,45,8.30
2018,07,03,05,46,8.30
2018,07,03,05,47,8.30
2018,07,03,05,48,8.30
2018,07,03,05,49,8.30
2018,07,03,05,50,8.30
2018,07,03,05,51,8.30
2018,07,03,05,52,8.30
2018,07,03,05,53,8.30
2018,07,03,05,54,8.30
2018,07,03,05,55,8.30
2018,07,03,05,56,8.30
2018,07,03,05,57,8.30
2018,07,03,05,58,8.30
2018,07,03,05,59,8.30
2018,07,03,06,00,8.30
2018,07,03,06,01,8.30
2018,07,03,06,02,8.30
2018,07,03,06,03,8.30
2018,07,03,06,04,8.30
2018,07,03,06,05,8.30
2018,07,03,06,06,8.30
2018,07,03,06,07,8.30
2018,07,03,06,08,8.40
2018,07,03,06,09,8.40
2018,07,03,06,10,8.40
2018,07,03,06,11,8.40
2018,07,03,06,12,8.40
2018,07,03,06,13,8.40
2018,07,03,06,14,8.50
2018,07,03,06,15,8.50
2018,07,03,06,16,8.50
2018,07,03,06,17,8.50
2018,07,03,06,18,8.50
2018,07,03,06,19,8.50
2018,07,03,06,20,8.50
2018,07,03,06,21,8.50
2018,07,03,06,22,8.50
2018,07,03,06,23,8.50
2018,07,03,06,24,8.50
2018,07,03,06,25,8.60
2018,07,03,06,26,8.60
2018,07,03,06,27,8.60
2018,07,03,06,28,8.60
2018,07,03,06,29,8.70
2018,07,03,06,30,8.70
2018,07,03,06,31,8.70
2018,07,03,06,32,8.70
2018,07,03,06,33,8.80
2018,07,03,06,34,8.80
2018,07,03,06,35,8.80
2018,07,03,06,36,8.80
2018,07,03,06,37,8.90
2018,07,03,06,38,8.90
2018,07,03,06,39,8.90
2018,07,03,06,40,9.00
2018,07,03,06,41,9.00
2018,07,03,06,42,9.10
2018,07,03,06,43,9.10
2018,07,03,06,44,9.20
2018,07,03,06,45,9.20
2018,07,03,06,46,9.20
2018,07,03,06,47,9.20
2018,07,03,06,48,9.20
2018,07,03,06,49,9.30
2018,07,03,06,50,9.30
2018,07,03,06,51,9.30
2018,07,03,06,52,9.40
2018,07,03,06,53,9.50
2018,07,03,06,54,9.50
2018,07,03,06,55,9.60
2018,07,03,06,56,9.70
2018,07,03,06,57,9.80
2018,07,03,06,58,9.90
2018,07,03,06,59,10.00
2018,07,03,07,00,10.00
2018,07,03,07,01,10.10
2018,07,03,07,02,10.10
2018,07,03,07,03,10.20
2018,07,03,07,04,10.20
2018,07,03,07,05,10.30
2018,07,03,07,06,10.30
2018,07,03,07,07,10.40
2018,07,03,07,08,10.40
2018,07,03,07,09,10.40
2018,07,03,07,10,10.50
2018,07,03,07,11,10.50
2018,07,03,07,12,10.60
2018,07,03,07,13,10.60
2018,07,03,07,14,10.60
2018,07,03,07,15,10.70
2018,07,03,07,16,10.70
2018,07,03,07,17,10.70
2018,07,03,07,18,10.80
2018,07,03,07,19,10.80
2018,07,03,07,20,10.80
2018,07,03,07,21,10.80
2018,07,03,07,22,10.90
2018,07,03,07,23,11.00
2018,07,03,07,24,11.10
2018,07,03,07,25,11.20
2018,07,03,07,26,11.30
2018,07,03,07,27,11.40
2018,07,03,07,28,11.50
2018,07,03,07,29,11.50
2018,07,03,07,30,11.60
2018,07,03,07,31,11.70
2018,07,03,07,32,11.80
2018,07,03,07,33,12.00
2018,07,03,07,34,12.10
2018,07,03,07,35,12.30
2018,07,03,07,36,12.40
2018,07,03,07,37,12.60
2018,07,03,07,38,12.70
2018,07,03,07,39,12.90
2018,07,03,07,40,13.10
2018,07,03,07,41,13.30
2018,07,03,07,42,13.50
2018,07,03,07,43,13.70
2018,07,03,07,44,13.90
2018,07,03,07,45,14.00
2018,07,03,07,46,14.20
2018,07,03,07,47,14.30
2018,07,03,07,48,14.30
2018,07,03,07,49,14.40
2018,07,03,07,50,14.40
2018,07,03,07,51,14.40
2018,07,03,07,52,14.40
2018,07,03,07,53,14.40
2018,07,03,07,54,14.40
2018,07,03,07,55,14.40
2018,07,03,07,56,14.50
2018,07,03,07,57,14.50
2018,07,03,07,58,14.60
2018,07,03,07,59,14.70
2018,07,03,08,00,14.70
2018,07,03,08,01,14.80
2018,07,03,08,02,15.00
2018,07,03,08,03,15.00
2018,07,03,08,04,15.00
2018,07,03,08,05,15.00
2018,07,03,08,06,15.00
2018,07,03,08,07,15.00
2018,07,03,08,08,15.00
2018,07,03,08,09,15.00
2018,07,03,08,10,15.10
2018,07,03,08,11,15.10
2018,07,03,08,12,15.10
2018,07,03,08,13,15.20
2018,07,03,08,14,15.20
2018,07,03,08,15,15.30
2018,07,03,08,16,15.30
2018,07,03,08,17,15.40
2018,07,03,08,18,15.40
2018,07,03,08,19,15.50
2018,07,03,08,20,15.60
2018,07,03,08,21,15.70
2018,07,03,08,22,15.70
2018,07,03,08,23,15.80
2018,07,03,08,24,15.90
2018,07,03,08,25,16.00
2018,07,03,08,26,16.00
2018,07,03,08,27,16.00
2018,07,03,08,28,16.10
2018,07,03,08,29,16.10
2018,07,03,08,30,16.10
2018,07,03,08,31,16.10
2018,07,03,08,32,16.10
2018,07,03,08,33,16.20
2018,07,03,08,34,16.20
2018,07,03,08,35,16.30
2018,07,03,08,36,16.30
2018,07,03,08,37,16.40
2018,07,03,08,38,16.40
2018,07,03,08,39,16.40
2018,07,03,08,40,16.40
2018,07,03,08,41,16.50
2018,07,03,08,42,16.50
2018,07,03,08,43,16.50
2018,07,03,08,44,16.40
2018,07,03,08,45,16.40
2018,07,03,08,46,16.50
2018,07,03,08,47,16.50
2018,07,03,08,48,16.50
2018,07,03,08,49,16.60
2018,07,03,08,50,16.60
2018,07,03,08,51,16.70
2018,07,03,08,52,16.80
2018,07,03,08,53,16.80
2018,07,03,08,54,16.80
2018,07,03,08,55,16.80
2018,07,03,08,56,16.90
2018,07,03,08,57,17.00
2018,07,03,08,58,17.10
2018,07,03,08,59,17.20
2018,07,03,09,00,17.20
2018,07,03,09,01,17.30
2018,07,03,09,02,17.40
2018,07,03,09,03,17.40
2018,07,03,09,04,17.50
2018,07,03,09,05,17.50
2018,07,03,09,06,17.40
2018,07,03,09,07,17.40
2018,07,03,09,08,17.40
2018,07,03,09,09,17.40
2018,07,03,09,10,17.40
2018,07,03,09,11,17.40
2018,07,03,09,12,17.30
2018,07,03,09,13,17.20
2018,07,03,09,14,17.10
2018,07,03,09,15,17.10
2018,07,03,09,16,17.00
2018,07,03,09,17,17.10
2018,07,03,09,18,17.10
2018,07,03,09,19,17.20
2018,07,03,09,20,17.20
2018,07,03,09,21,17.30
2018,07,03,09,22,17.30
2018,07,03,09,23,17.30
2018,07,03,09,24,17.30
2018,07,03,09,25,17.30
2018,07,03,09,26,17.30
2018,07,03,09,27,17.30
2018,07,03,09,28,17.30
2018,07,03,09,29,17.30
2018,07,03,09,30,17.20
2018,07,03,09,31,17.20
2018,07,03,09,32,17.10
2018,07,03,09,33,17.10
2018,07,03,09,34,17.00
2018,07,03,09,35,17.00
2018,07,03,09,36,17.10
2018,07,03,09,37,17.20
2018,07,03,09,38,17.30
2018,07,03,09,39,17.30
2018,07,03,09,40,17.40
2018,07,03,09,41,17.50
2018,07,03,09,42,17.60
2018,07,03,09,43,17.70
2018,07,03,09,44,17.70
2018,07,03,09,45,17.70
2018,07,03,09,46,17.70
2018,07,03,09,47,17.80
2018,07,03,09,48,17.70
2018,07,03,09,49,17.60
2018,07,03,09,50,17.50
2018,07,03,09,51,17.50
2018,07,03,09,52,17.50
2018,07,03,09,53,17.50
2018,07,03,09,54,17.60
2018,07,03,09,55,17.50
2018,07,03,09,56,17.40
2018,07,03,09,57,17.50
2018,07,03,09,58,17.50
2018,07,03,09,59,17.50
2018,07,03,10,00,17.40
2018,07,03,10,01,17.30
2018,07,03,10,02,17.30
2018,07,03,10,03,17.20
2018,07,03,10,04,17.10
2018,07,03,10,05,17.10
2018,07,03,10,06,17.10
2018,07,03,10,07,17.20
2018,07,03,10,08,17.20
2018,07,03,10,09,17.20
2018,07,03,10,10,17.30
2018,07,03,10,11,17.40
2018,07,03,10,12,17.40
2018,07,03,10,13,17.50
2018,07,03,10,14,17.50
2018,07,03,10,15,17.60
2018,07,03,10,16,17.60
2018,07,03,10,17,17.50
2018,07,03,10,18,17.40
2018,07,03,10,19,17.50
2018,07,03,10,20,17.50
2018,07,03,10,21,17.60
2018,07,03,10,22,17.70
2018,07,03,10,23,17.80
2018,07,03,10,24,17.70
2018,07,03,10,25,17.70
2018,07,03,10,26,17.70
2018,07,03,10,27,17.80
2018,07,03,10,28,17.90
2018,07,03,10,29,18.00
2018,07,03,10,30,18.10
2018,07,03,10,31,18.20
2018,07,03,10,32,18.20
2018,07,03,10,33,18.20
2018,07,03,10,34,18.20
2018,07,03,10,35,18.30
2018,07,03,10,36,18.20
2018,07,03,10,37,18.20
2018,07,03,10,38,18.10
2018,07,03,10,39,18.10
2018,07,03,10,40,18.10
2018,07,03,10,41,18.10
2018,07,03,10,42,18.20
2018,07,03,10,43,18.30
2018,07,03,10,44,18.40
2018,07,03,10,45,18.50
2018,07,03,10,46,18.40
2018,07,03,10,47,18.30
2018,07,03,10,48,18.30
2018,07,03,10,49,18.30
2018,07,03,10,50,18.40
2018,07,03,10,51,18.30
2018,07,03,10,52,18.20
2018,07,03,10,53,18.20
2018,07,03,10,54,18.20
2018,07,03,10,55,18.30
2018,07,03,10,56,18.40
2018,07,03,10,57,18.50
2018,07,03,10,58,18.50
2018,07,03,10,59,18.60
2018,07,03,11,00,18.60
2018,07,03,11,01,18.60
2018,07,03,11,02,18.50
2018,07,03,11,03,18.60
2018,07,03,11,04,18.60
2018,07,03,11,05,18.50
2018,07,03,11,06,18.40
2018,07,03,11,07,18.30
2018,07,03,11,08,18.20
2018,07,03,11,09,18.20
2018,07,03,11,10,18.30
2018,07,03,11,11,18.30
2018,07,03,11,12,18.50
2018,07,03,11,13,18.60
2018,07,03,11,14,18.70
2018,07,03,11,15,18.90
2018,07,03,11,16,18.90
2018,07,03,11,17,18.90
2018,07,03,11,18,18.80
2018,07,03,11,19,18.80
2018,07,03,11,20,18.70
2018,07,03,11,21,18.50
2018,07,03,11,22,18.50
2018,07,03,11,23,18.50
2018,07,03,11,24,18.40
2018,07,03,11,25,18.40
2018,07,03,11,26,18.30
2018,07,03,11,27,18.30
2018,07,03,11,28,18.30
2018,07,03,11,29,18.40
2018,07,03,11,30,18.40
2018,07,03,11,31,18.30
2018,07,03,11,32,18.40
2018,07,03,11,33,18.40
2018,07,03,11,34,18.30
2018,07,03,11,35,18.20
2018,07,03,11,36,18.20
2018,07,03,11,37,18.20
2018,07,03,11,38,18.30
2018,07,03,11,39,18.30
2018,07,03,11,40,18.40
2018,07,03,11,41,18.40
2018,07,03,11,42,18.30
2018,07,03,11,43,18.40
2018,07,03,11,44,18.40
2018,07,03,11,45,18.40
2018,07,03,11,46,18.40
2018,07,03,11,47,18.40
2018,07,03,11,48,18.40
2018,07,03,11,49,18.40
2018,07,03,11,50,18.40
2018,07,03,11,51,18.50
2018,07,03,11,52,18.60
2018,07,03,11,53,18.60
2018,07,03,11,54,18.70
2018,07,03,11,55,18.70
2018,07,03,11,56,18.70
2018,07,03,11,57,18.70
2018,07,03,11,58,18.80
2018,07,03,11,59,18.90
2018,07,03,12,00,19.00
2018,07,03,12,01,19.10
2018,07,03,12,02,19.10
2018,07,03,12,03,19.20
2018,07,03,12,04,19.30
2018,07,03,12,05,19.30
2018,07,03,12,06,19.30
2018,07,03,12,07,19.40
2018,07,03,12,08,19.40
2018,07,03,12,09,19.40
2018,07,03,12,10,19.40
2018,07,03,12,11,19.50
2018,07,03,12,12,19.50
2018,07,03,12,13,19.40
2018,07,03,12,14,19.50
2018,07,03,12,15,19.60
2018,07,03,12,16,19.70
2018,07,03,12,17,19.80
2018,07,03,12,18,19.90
2018,07,03,12,19,19.90
2018,07,03,12,20,20.00
2018,07,03,12,21,20.10
2018,07,03,12,22,20.10
2018,07,03,12,23,20.20
2018,07,03,12,24,20.20
2018,07,03,12,25,20.10
2018,07,03,12,26,20.00
2018,07,03,12,27,20.00
2018,07,03,12,28,19.90
2018,07,03,12,29,19.90
2018,07,03,12,30,19.90
2018,07,03,12,31,19.90
2018,07,03,12,32,19.90
2018,07,03,12,33,19.90
2018,07,03,12,34,20.00
2018,07,03,12,35,19.90
2018,07,03,12,36,19.90
2018,07,03,12,37,19.80
2018,07,03,12,38,19.80
2018,07,03,12,39,19.70
2018,07,03,12,40,19.50
2018,07,03,12,41,19.40
2018,07,03,12,42,19.30
2018,07,03,12,43,19.30
2018,07,03,12,44,19.40
2018,07,03,12,45,19.40
2018,07,03,12,46,19.50
2018,07,03,12,47,19.50
2018,07,03,12,48,19.50
2018,07,03,12,49,19.60
2018,07,03,12,50,19.70
2018,07,03,12,51,19.80
2018,07,03,12,52,19.80
2018,07,03,12,53,19.80
2018,07,03,12,54,19.80
2018,07,03,12,55,19.80
2018,07,03,12,56,19.90
2018,07,03,12,57,19.90
2018,07,03,12,58,20.00
2018,07,03,12,59,20.00
2018,07,03,13,00,20.10
2018,07,03,13,01,20.20
2018,07,03,13,02,20.30
2018,07,03,13,03,20.30
2018,07,03,13,04,20.30
2018,07,03,13,05,20.20
2018,07,03,13,06,20.10
2018,07,03,13,07,20.00
2018,07,03,13,08,19.70
2018,07,03,13,09,19.50
2018,07,03,13,10,19.40
2018,07,03,13,11,19.40
2018,07,03,13,12,19.40
2018,07,03,13,13,19.30
2018,07,03,13,14,19.20
2018,07,03,13,15,19.20
2018,07,03,13,16,19.10
2018,07,03,13,17,19.20
2018,07,03,13,18,19.30
2018,07,03,13,19,19.40
2018,07,03,13,20,19.60
2018,07,03,13,21,19.70
2018,07,03,13,22,19.80
2018,07,03,13,23,19.80
2018,07,03,13,24,19.80
2018,07,03,13,25,19.90
2018,07,03,13,26,19.80
2018,07,03,13,27,19.70
2018,07,03,13,28,19.60
2018,07,03,13,29,19.60
2018,07,03,13,30,19.50
2018,07,03,13,31,19.40
2018,07,03,13,32,19.20
2018,07,03,13,33,19.00
2018,07,03,13,34,19.00
2018,07,03,13,35,19.00
2018,07,03,13,36,19.10
2018,07,03,13,37,19.10
2018,07,03,13,38,19.10
2018,07,03,13,39,19.10
2018,07,03,13,40,19.10
2018,07,03,13,41,19.10
2018,07,03,13,42,19.10
2018,07,03,13,43,19.10
2018,07,03,13,44,19.00
2018,07,03,13,45,19.00
2018,07,03,13,46,19.10
2018,07,03,13,47,19.20
2018,07,03,13,48,19.40
2018,07,03,13,49,19.40
2018,07,03,13,50,19.50
2018,07,03,13,51,19.50
2018,07,03,13,52,19.50
2018,07,03,13,53,19.50
2018,07,03,13,54,19.50
2018,07,03,13,55,19.50
2018,07,03,13,56,19.60
2018,07,03,13,57,19.60
2018,07,03,13,58,19.50
2018,07,03,13,59,19.50
2018,07,03,14,00,19.50
2018,07,03,14,01,19.50
2018,07,03,14,02,19.50
2018,07,03,14,03,19.50
2018,07,03,14,04,19.40
2018,07,03,14,05,19.40
2018,07,03,14,06,19.40
2018,07,03,14,07,19.50
2018,07,03,14,08,19.60
2018,07,03,14,09,19.60
2018,07,03,14,10,19.50
2018,07,03,14,11,19.40
2018,07,03,14,12,19.40
2018,07,03,14,13,19.30
2018,07,03,14,14,19.10
2018,07,03,14,15,19.00
2018,07,03,14,16,18.90
2018,07,03,14,17,18.90
2018,07,03,14,18,18.90
2018,07,03,14,19,18.90
2018,07,03,14,20,18.80
2018,07,03,14,21,18.70
2018,07,03,14,22,18.60
2018,07,03,14,23,18.60
2018,07,03,14,24,18.60
2018,07,03,14,25,18.70
2018,07,03,14,26,18.90
2018,07,03,14,27,19.10
2018,07,03,14,28,19.20
2018,07,03,14,29,19.20
2018,07,03,14,30,19.30
2018,07,03,14,31,19.30
2018,07,03,14,32,19.40
2018,07,03,14,33,19.50
2018,07,03,14,34,19.70
2018,07,03,14,35,19.80
2018,07,03,14,36,19.90
2018,07,03,14,37,20.00
2018,07,03,14,38,20.00
2018,07,03,14,39,20.10
2018,07,03,14,40,20.10
2018,07,03,14,41,20.10
2018,07,03,14,42,20.20
2018,07,03,14,43,20.10
2018,07,03,14,44,19.90
2018,07,03,14,45,19.80
2018,07,03,14,46,19.60
2018,07,03,14,47,19.70
2018,07,03,14,48,19.70
2018,07,03,14,49,19.70
2018,07,03,14,50,19.80
2018,07,03,14,51,19.90
2018,07,03,14,52,19.90
2018,07,03,14,53,19.90
2018,07,03,14,54,19.90
2018,07,03,14,55,19.90
2018,07,03,14,56,19.80
2018,07,03,14,57,19.90
2018,07,03,14,58,20.00
2018,07,03,14,59,20.00
2018,07,03,15,00,20.10
2018,07,03,15,01,20.10
2018,07,03,15,02,20.10
2018,07,03,15,03,20.10
2018,07,03,15,04,20.10
2018,07,03,15,05,20.10
2018,07,03,15,06,20.00
2018,07,03,15,07,19.90
2018,07,03,15,08,19.80
2018,07,03,15,09,19.80
2018,07,03,15,10,19.80
2018,07,03,15,11,19.80
2018,07,03,15,12,19.80
2018,07,03,15,13,19.70
2018,07,03,15,14,19.60
2018,07,03,15,15,19.60
2018,07,03,15,16,19.60
2018,07,03,15,17,19.70
2018,07,03,15,18,19.70
2018,07,03,15,19,19.60
2018,07,03,15,20,19.60
2018,07,03,15,21,19.70
2018,07,03,15,22,19.80
2018,07,03,15,23,19.80
2018,07,03,15,24,19.70
2018,07,03,15,25,19.60
2018,07,03,15,26,19.70
2018,07,03,15,27,19.80
2018,07,03,15,28,19.80
2018,07,03,15,29,19.80
2018,07,03,15,30,19.90
2018,07,03,15,31,19.90
2018,07,03,15,32,19.90
2018,07,03,15,33,19.80
2018,07,03,15,34,19.80
2018,07,03,15,35,19.80
2018,07,03,15,36,19.70
2018,07,03,15,37,19.70
2018,07,03,15,38,19.80
2018,07,03,15,39,19.80
2018,07,03,15,40,19.80
2018,07,03,15,41,19.90
2018,07,03,15,42,19.90
2018,07,03,15,43,20.00
2018,07,03,15,44,20.10
2018,07,03,15,45,20.20
2018,07,03,15,46,20.20
2018,07,03,15,47,20.20
2018,07,03,15,48,20.20
2018,07,03,15,49,20.20
2018,07,03,15,50,20.20
2018,07,03,15,51,20.30
2018,07,03,15,52,20.40
2018,07,03,15,53,20.50
2018,07,03,15,54,20.60
2018,07,03,15,55,20.60
2018,07,03,15,56,20.60
2018,07,03,15,57,20.60
2018,07,03,15,58,20.60
2018,07,03,15,59,20.50
2018,07,03,16,00,20.40
2018,07,03,16,01,20.30
2018,07,03,16,02,20.30
2018,07,03,16,03,20.30
2018,07,03,16,04,20.30
2018,07,03,16,05,20.30
2018,07,03,16,06,20.10
2018,07,03,16,07,20.10
2018,07,03,16,08,20.10
2018,07,03,16,09,20.20
2018,07,03,16,10,20.30
2018,07,03,16,11,20.30
2018,07,03,16,12,20.20
2018,07,03,16,13,20.30
2018,07,03,16,14,20.30
2018,07,03,16,15,20.30
2018,07,03,16,16,20.30
2018,07,03,16,17,20.30
2018,07,03,16,18,20.30
2018,07,03,16,19,20.30
2018,07,03,16,20,20.20
2018,07,03,16,21,20.10
2018,07,03,16,22,20.10
2018,07,03,16,23,20.10
2018,07,03,16,24,20.20
2018,07,03,16,25,20.30
2018,07,03,16,26,20.30
2018,07,03,16,27,20.40
2018,07,03,16,28,20.50
2018,07,03,16,29,20.60
2018,07,03,16,30,20.80
2018,07,03,16,31,20.90
2018,07,03,16,32,21.00
2018,07,03,16,33,21.10
2018,07,03,16,34,21.20
2018,07,03,16,35,21.30
2018,07,03,16,36,21.40
2018,07,03,16,37,21.50
2018,07,03,16,38,21.60
2018,07,03,16,39,21.70
2018,07,03,16,40,21.70
2018,07,03,16,41,21.70
2018,07,03,16,42,21.70
2018,07,03,16,43,21.70
2018,07,03,16,44,21.60
2018,07,03,16,45,21.60
2018,07,03,16,46,21.60
2018,07,03,16,47,21.60
2018,07,03,16,48,21.60
2018,07,03,16,49,21.70
2018,07,03,16,50,21.70
2018,07,03,16,51,21.70
2018,07,03,16,52,21.50
2018,07,03,16,53,21.40
2018,07,03,16,54,21.40
2018,07,03,16,55,21.40
2018,07,03,16,56,21.40
2018,07,03,16,57,21.40
2018,07,03,16,58,21.50
2018,07,03,16,59,21.60
2018,07,03,17,00,21.70
2018,07,03,17,01,21.80
2018,07,03,17,02,21.80
2018,07,03,17,03,21.80
2018,07,03,17,04,21.80
2018,07,03,17,05,21.90
2018,07,03,17,06,21.90
2018,07,03,17,07,21.90
2018,07,03,17,08,22.00
2018,07,03,17,09,22.00
2018,07,03,17,10,22.00
2018,07,03,17,11,22.10
2018,07,03,17,12,22.20
2018,07,03,17,13,22.30
2018,07,03,17,14,22.30
2018,07,03,17,15,22.30
2018,07,03,17,16,22.40
2018,07,03,17,17,22.30
2018,07,03,17,18,22.20
2018,07,03,17,19,22.20
2018,07,03,17,20,22.20
2018,07,03,17,21,21.90
2018,07,03,17,22,21.70
2018,07,03,17,23,21.60
2018,07,03,17,24,21.50
2018,07,03,17,25,21.40
2018,07,03,17,26,21.30
2018,07,03,17,27,21.20
2018,07,03,17,28,21.00
2018,07,03,17,29,20.90
2018,07,03,17,30,20.90